GW2540 Weather Reports


time (UTC)temp
C
wind
direction
speed
KPH
gust
KPH
rain 1hr
cm
rain 24hr
cm
rain mn
cm
humidity
%
barometer
mb
20260504184806 13 0 17.7 20.9 0.00 0.00 0.00 40 1015.6
20260504184302 13 0 11.3 12.9 0.00 0.00 0.00 40 1015.6
20260504183758 13 270 20.9 24.1 0.00 0.00 0.00 41 1015.6
20260504183255 13 270 8.0 11.3 0.00 0.00 0.00 41 1015.6
20260504182753 13 270 12.9 20.9 0.00 0.00 0.00 42 1014.9
20260504182250 13 0 14.5 22.5 0.00 0.00 0.00 42 1014.9
20260504181747 13 0 19.3 30.6 0.00 0.00 0.00 43 1014.9
20260504181244 13 0 12.9 16.1 0.00 0.00 0.00 43 1014.9
20260504180743 13 270 4.8 9.7 0.00 0.00 0.00 44 1014.6
20260504180242 13 0 14.5 20.9 0.00 0.00 0.00 44 1014.6
20260504175739 13 0 8.0 17.7 0.00 0.00 0.00 44 1014.3
20260504175235 13 0 14.5 19.3 0.00 0.00 0.00 45 1014.3
20260504174734 13 0 12.9 16.1 0.00 0.00 0.00 46 1014.3
20260504174231 13 270 8.0 11.3 0.00 0.00 0.00 46 1013.9
20260504173727 13 0 14.5 17.7 0.00 0.00 0.00 46 1013.6
20260504173224 13 0 17.7 25.7 0.00 0.00 0.00 46 1013.6
20260504172721 13 0 11.3 16.1 0.00 0.00 0.00 46 1013.3
20260504172217 12 0 11.3 20.9 0.00 0.00 0.00 47 1013.3
20260504171714 12 0 17.7 20.9 0.00 0.00 0.00 47 1013.3
20260504171211 12 0 14.5 17.7 0.00 0.00 0.00 47 1013.3
20260504170708 12 0 25.7 32.2 0.00 0.00 0.00 47 1012.9
20260504170206 12 0 16.1 24.1 0.00 0.00 0.00 48 1012.9
20260504160124 13 0 9.7 16.1 0.00 0.00 0.00 47 1011.2
20260504151051 15 45 8.0 11.3 0.00 0.00 0.00 48 1010.4
20260504150548 15 270 4.8 6.4 0.00 0.00 0.00 48 1010.1
20260504141014 15 0 8.0 11.3 0.00 0.53 0.53 47 1008.8
20260504140511 15 0 8.0 9.7 0.00 0.53 0.53 47 1008.8
20260504130436 16 0 11.3 14.5 0.00 0.53 0.53 46 1007.1
20260504110322 20 270 4.8 9.7 0.00 0.53 0.53 39 1002.6
20260504100240 22 45 12.9 16.1 0.00 0.53 0.53 37 1000.5
20260504081633 25 135 8.0 11.3 0.00 0.53 0.53 38 996.8
20260504081129 25 270 1.6 3.2 0.00 0.53 0.53 38 996.8
20260504080626 25 270 8.0 11.3 0.00 0.53 0.53 39 996.8
20260504080122 25 180 12.9 16.1 0.00 0.53 0.53 39 996.5
20260504050439 29 90 3.2 4.8 0.00 0.53 0.53 49 994.7
20260504045936 29 90 3.2 4.8 0.00 0.53 0.53 50 995.0
20260504045431 29 270 6.4 8.0 0.00 0.53 0.53 50 994.7
20260504044928 29 45 6.4 9.7 0.00 0.53 0.53 49 995.0
20260504044426 29 0 4.8 9.7 0.00 0.53 0.53 50 995.0
20260504043923 29 45 4.8 8.0 0.00 0.53 0.53 50 994.7
20260504043420 30 180 8.0 12.9 0.00 0.53 0.53 51 994.7
20260504042917 30 270 8.0 11.3 0.00 0.53 0.53 53 995.0
20260504042414 29 0 4.8 4.8 0.00 0.53 0.53 53 995.0
20260504041910 29 270 6.4 8.0 0.00 0.53 0.53 53 994.7
20260504041406 28 270 4.8 8.0 0.00 0.53 0.53 56 995.0
20260504040902 28 270 3.2 6.4 0.00 0.53 0.53 57 995.0
20260504040400 28 0 9.7 11.3 0.00 0.53 0.53 57 994.7
20260504035856 28 180 6.4 8.0 0.00 0.53 0.53 58 995.0
20260504035354 27 315 6.4 9.7 0.00 0.53 0.53 58 995.3
20260504034850 27 0 9.7 11.3 0.00 0.53 0.53 58 995.3
20260504034348 27 270 11.3 16.1 0.00 0.53 0.53 59 995.0
20260504033844 27 315 11.3 14.5 0.00 0.53 0.53 59 995.3
20260504033343 27 0 4.8 6.4 0.00 0.53 0.53 59 995.8
20260504032839 27 270 6.4 9.7 0.00 0.53 0.53 59 995.3
20260504032336 27 180 4.8 8.0 0.00 0.53 0.53 59 995.8
20260504031833 26 315 6.4 8.0 0.00 0.53 0.53 61 995.8
20260504031330 26 0 3.2 4.8 0.00 0.53 0.53 61 995.8
20260504030826 26 135 1.6 3.2 0.00 0.53 0.53 62 995.8
20260504030324 26 45 4.8 6.4 0.00 0.53 0.53 63 996.1
20260504025820 26 135 9.7 11.3 0.00 0.53 0.53 63 996.1
20260504025317 26 45 1.6 4.8 0.00 0.53 0.53 64 996.1
20260504024813 26 135 3.2 3.2 0.00 0.53 0.53 64 996.1
20260504024310 25 180 8.0 11.3 0.00 0.53 0.53 65 996.5
20260504023807 25 45 8.0 9.7 0.00 0.53 0.53 65 996.5
20260504023303 25 225 8.0 9.7 0.00 0.53 0.53 66 996.5
20260504022759 25 180 8.0 8.0 0.00 0.53 0.53 66 996.5
20260504022256 25 45 4.8 6.4 0.00 0.53 0.53 67 996.5
20260504021752 25 0 3.2 3.2 0.00 0.53 0.53 68 996.8
20260504021250 25 225 4.8 8.0 0.00 0.53 0.53 68 996.8
20260504020747 25 0 3.2 3.2 0.00 0.53 0.53 68 996.8
20260504020243 24 0 1.6 3.2 0.00 0.53 0.53 68 997.1
20260504015739 24 45 1.6 3.2 0.00 0.53 0.53 68 997.1
20260504015236 24 0 8.0 9.7 0.00 0.53 0.53 69 997.1
20260504014732 24 225 3.2 4.8 0.00 0.53 0.53 69 997.1
20260504014229 23 270 1.6 3.2 0.00 0.53 0.53 69 997.1
20260504013726 23 135 4.8 6.4 0.00 0.53 0.53 69 997.5
20260504013224 23 90 4.8 6.4 0.00 0.53 0.53 70 997.5
20260504012720 23 315 4.8 4.8 0.00 0.53 0.53 70 997.5
20260504012218 23 45 9.7 12.9 0.00 0.53 0.53 70 997.5
20260504011715 23 0 1.6 3.2 0.00 0.53 0.53 70 997.5
20260504011212 23 315 4.8 4.8 0.00 0.53 0.53 70 997.5
20260504010708 22 90 3.2 6.4 0.00 0.53 0.53 72 997.5
20260504010203 22 45 3.2 4.8 0.00 0.53 0.53 72 997.8
20260504005700 22 270 4.8 6.4 0.00 0.53 0.53 73 997.5
20260504005157 22 0 1.6 4.8 0.00 0.53 0.53 73 997.8
20260504004655 22 135 1.6 3.2 0.00 0.53 0.53 73 997.8
20260504004152 22 180 3.2 4.8 0.00 0.53 0.53 73 998.2
20260504003648 22 0 6.4 8.0 0.00 0.53 0.53 74 997.8
20260504003145 22 0 6.4 9.7 0.00 0.53 0.53 74 998.2
20260504002642 21 45 8.0 9.7 0.00 0.53 0.53 74 998.2
20260504002139 21 45 1.6 3.2 0.00 0.53 0.53 75 998.2
20260504001637 21 45 4.8 6.4 0.00 0.53 0.53 75 998.2
20260504001133 21 0 4.8 4.8 0.00 0.53 0.53 75 998.2
20260504000630 21 90 0.0 1.6 0.00 0.53 0.53 76 998.2
20260504000128 21 45 9.7 9.7 0.00 0.53 0.53 76 998.2
20260503235626 21 315 4.8 6.4 0.00 0.53 0.53 77 998.2
20260503235122 20 315 3.2 4.8 0.00 0.53 0.53 78 998.2
20260503234620 20 270 6.4 9.7 0.00 0.53 0.53 79 997.8
20260503234118 20 0 8.0 8.0 0.18 0.53 0.53 80 998.2
20260503233615 20 45 11.3 11.3 0.18 0.53 0.53 80 998.2
20260503233110 20 0 6.4 8.0 0.00 0.51 0.51 81 998.2
20260503232607 20 45 3.2 3.2 0.00 0.51 0.51 81 998.2
20260503232105 19 270 3.2 8.0 0.00 0.51 0.51 81 998.2
20260503231603 19 0 4.8 6.4 0.00 0.51 0.51 81 997.8
20260503231059 19 0 1.6 3.2 0.00 0.51 0.51 82 998.2
20260503230555 19 225 1.6 3.2 0.00 0.51 0.51 81 998.2
20260503230053 19 0 4.8 6.4 0.00 0.51 0.51 81 998.2
20260503225550 19 0 4.8 6.4 0.00 0.51 0.51 82 997.5
20260503225045 19 0 8.0 9.7 0.00 0.51 0.51 82 998.2
20260503224543 19 45 4.8 4.8 0.00 0.51 0.51 84 998.2
20260503224040 18 0 1.6 3.2 0.00 0.51 0.51 85 997.8
20260503223538 18 270 6.4 8.0 0.00 0.51 0.51 87 998.2
20260503223033 18 45 4.8 8.0 0.00 0.51 0.51 87 998.2
20260503222532 18 90 1.6 3.2 0.00 0.51 0.51 88 998.2
20260503222030 18 45 4.8 8.0 0.00 0.51 0.51 90 997.8
20260503221528 18 45 4.8 8.0 0.00 0.51 0.51 91 998.2
20260503221025 18 0 3.2 3.2 0.00 0.51 0.51 91 997.8
20260503220521 17 270 4.8 6.4 0.00 0.51 0.51 91 997.8
20260503220017 17 45 9.7 12.9 0.00 0.51 0.51 91 997.8
20260503215515 17 45 3.2 4.8 0.00 0.51 0.51 91 997.8
20260503215012 17 45 4.8 8.0 0.00 0.51 0.51 91 997.8
20260503214510 17 0 8.0 11.3 0.00 0.51 0.51 92 997.8
20260503214006 17 270 14.5 16.1 0.00 0.51 0.51 92 997.8
20260503213505 17 270 12.9 16.1 0.00 0.51 0.51 92 997.5
20260503213001 17 0 8.0 11.3 0.00 0.51 0.51 92 997.1
20260503212459 17 270 9.7 11.3 0.00 0.51 0.51 92 997.1
20260503211956 17 0 8.0 11.3 0.00 0.51 0.51 91 997.1
20260503211453 17 0 8.0 8.0 0.00 0.51 0.51 91 997.5
20260503210948 17 0 4.8 8.0 0.00 0.51 0.51 92 997.1
20260503210445 17 315 12.9 17.7 0.00 0.51 0.51 92 996.8
20260503205940 17 270 11.3 14.5 0.00 0.51 0.51 93 997.1
20260503205437 17 315 11.3 16.1 0.00 0.51 0.51 93 996.8
20260503204933 18 270 8.0 11.3 0.00 0.51 0.51 93 996.8
20260503204431 18 315 11.3 14.5 0.00 0.51 0.51 93 996.8
20260503203928 18 180 8.0 11.3 0.00 0.51 0.51 93 996.8
20260503203425 18 270 17.7 20.9 0.00 0.51 0.51 93 996.8
20260503202922 18 180 4.8 4.8 0.00 0.51 0.51 93 996.5
20260503202420 18 0 17.7 19.3 0.00 0.51 0.51 94 996.5
20260503201918 18 270 8.0 9.7 0.18 0.51 0.51 94 996.5
20260503201415 18 180 14.5 20.9 0.36 0.51 0.51 93 996.5
20260503200912 18 180 11.3 12.9 0.36 0.48 0.48 93 996.8
20260503200408 18 90 6.4 8.0 0.36 0.46 0.46 92 996.8
20260503195905 17 90 3.2 3.2 0.36 0.43 0.43 92 997.1
20260503195403 17 45 1.6 3.2 0.53 0.38 0.38 91 997.5
20260503194859 17 270 4.8 6.4 0.71 0.36 0.36 91 997.5
20260503194355 17 270 3.2 3.2 0.53 0.30 0.30 91 998.2
20260503193852 18 270 3.2 6.4 0.36 0.23 0.23 91 997.8
20260503193347 18 270 1.6 1.6 0.36 0.20 0.20 91 997.5
20260503192843 18 0 1.6 3.2 0.53 0.18 0.18 91 997.8
20260503192339 18 270 4.8 6.4 0.53 0.15 0.15 91 998.2
20260503191835 18 270 3.2 3.2 0.18 0.10 0.10 91 998.2
20260503191333 18 45 3.2 3.2 0.18 0.05 0.05 90 998.2
20260503190829 18 270 0.0 0.0 0.00 0.03 0.03 90 998.2
20260503190326 18 180 4.8 6.4 0.00 0.03 0.03 90 998.2
20260503185823 17 90 0.0 1.6 0.00 0.03 0.03 89 998.5
20260503185319 17 180 3.2 4.8 0.00 0.03 0.03 89 998.5